Volver al catálogo

STARLINK-36583

ActivoComunicacionesSSO
NORAD 67545·PAYLOAD·🇺🇸 United States

Lanzado Jan 22, 2026 desde Vandenberg Space Force Base

Loading…

Próximos Pases (próximas 24 horas)

TLE

ActualizadoSource: CelesTrak SupGP

Época: Sep 15, 2026, 03:08 UTC

1 67545C 26014P   26258.13104167  .00072363  00000+0  22454-2 0  2583
2 67545  97.2849 143.6143 0001632  98.4612  67.7470 15.33414408    17

Sigue STARLINK-36583 en tiempo real con AllMySat

Download on the App Store